| time (UTC) | temp F | wind direction | speed MPH | gust MPH | rain 1hr in | rain 24hr in | rain mn in | humidity % | barometer mb |
| 20260831002518 | 61 | 137 | 2.0 | 9.0 | 0.00 | 0.17 | 0.00 | 94 | 1009.3 |
| 20260831001514 | 61 | 152 | 2.0 | 8.0 | 0.00 | 0.17 | 0.00 | 94 | 1009.3 |
| 20260831000717 | 61 | 175 | 3.0 | 7.0 | 0.00 | 0.17 | 0.00 | 94 | 1009.4 |
| 20260831000536 | 61 | 166 | 2.0 | 7.0 | 0.00 | 0.17 | 0.00 | 94 | 1009.4 |
| 20260830235400 | 61 | 177 | 3.0 | 7.0 | 0.00 | 0.17 | 0.00 | 94 | 1009.7 |
| 20260830233510 | 61 | 192 | 3.0 | 7.0 | 0.00 | 0.17 | 0.00 | 94 | 1009.8 |
| 20260830232511 | 61 | 223 | 3.0 | 8.0 | 0.00 | 0.17 | 0.00 | 94 | 1009.7 |
| 20260830231513 | 61 | 178 | 2.0 | 7.0 | 0.00 | 0.17 | 0.00 | 94 | 1009.8 |
| 20260830230517 | 61 | 200 | 3.0 | 7.0 | 0.00 | 0.17 | 0.00 | 95 | 1009.7 |
| 20260830225516 | 61 | 205 | 1.0 | 5.0 | 0.00 | 0.17 | 0.00 | 95 | 1009.8 |
| 20260830224524 | 61 | 192 | 2.0 | 5.0 | 0.00 | 0.17 | 0.00 | 95 | 1009.9 |
| 20260830223512 | 61 | 159 | 2.0 | 6.0 | 0.00 | 0.17 | 0.00 | 95 | 1009.7 |
| 20260830222513 | 61 | 189 | 1.0 | 4.0 | 0.00 | 0.17 | 0.00 | 95 | 1009.8 |
| 20260830221514 | 61 | 142 | 1.0 | 3.0 | 0.00 | 0.17 | 0.00 | 95 | 1009.8 |
| 20260830220509 | 61 | 131 | 2.0 | 7.0 | 0.00 | 0.17 | 0.00 | 95 | 1009.2 |
| 20260830215513 | 61 | 153 | 2.0 | 5.0 | 0.00 | 0.17 | 0.17 | 95 | 1009.3 |
| 20260830214509 | 61 | 136 | 2.0 | 5.0 | 0.00 | 0.17 | 0.17 | 95 | 1009.4 |
| 20260830214448 | 62 | 128 | 3.0 | 7.0 | 0.01 | 0.17 | 0.17 | 95 | 1009.5 |
| 20260830212505 | 62 | 124 | 2.0 | 4.0 | 0.01 | 0.17 | 0.17 | 95 | 1009.7 |
| 20260830211504 | 63 | 165 | 1.0 | 4.0 | 0.02 | 0.17 | 0.17 | 94 | 1009.6 |
| 20260830210503 | 63 | 165 | 1.0 | 4.0 | 0.02 | 0.17 | 0.17 | 94 | 1009.8 |
| 20260830205505 | 63 | 144 | 1.0 | 6.0 | 0.17 | 0.17 | 0.17 | 94 | 1009.9 |
| 20260830204507 | 63 | 154 | 1.0 | 5.0 | 0.17 | 0.17 | 0.17 | 94 | 1010.0 |
| 20260830203504 | 62 | 206 | 0.0 | 1.0 | 0.16 | 0.16 | 0.16 | 93 | 1010.0 |
| 20260830202502 | 62 | 206 | 0.0 | 3.0 | 0.16 | 0.16 | 0.16 | 92 | 1009.9 |
| 20260830201503 | 62 | 206 | 1.0 | 4.0 | 0.15 | 0.15 | 0.15 | 90 | 1010.4 |
| 20260830201416 | 63 | 229 | 6.0 | 16.0 | 0.14 | 0.14 | 0.14 | 87 | 1010.6 |
| 20260830195502 | 65 | 278 | 2.0 | 10.0 | 0.00 | 0.00 | 0.00 | 87 | 1010.6 |
| 20260830194503 | 65 | 145 | 2.0 | 5.0 | 0.00 | 0.00 | 0.00 | 87 | 1010.2 |
| 20260830193501 | 65 | 157 | 2.0 | 5.0 | 0.00 | 0.00 | 0.00 | 86 | 1010.2 |
| 20260830193342 | 65 | 158 | 2.0 | 5.0 | 0.00 | 0.00 | 0.00 | 86 | 1010.2 |
| 20260830191511 | 65 | 146 | 2.0 | 4.0 | 0.00 | 0.00 | 0.00 | 85 | 1010.2 |
| 20260830190512 | 66 | 146 | 2.0 | 4.0 | 0.00 | 0.00 | 0.00 | 84 | 1010.2 |
| 20260830185501 | 66 | 175 | 1.0 | 6.0 | 0.00 | 0.00 | 0.00 | 83 | 1010.2 |
| 20260830184614 | 67 | 207 | 1.0 | 4.0 | 0.00 | 0.00 | 0.00 | 83 | 1010.2 |
| 20260830183502 | 67 | 146 | 2.0 | 5.0 | 0.00 | 0.01 | 0.00 | 82 | 1010.2 |
| 20260830182500 | 67 | 138 | 2.0 | 6.0 | 0.00 | 0.01 | 0.00 | 82 | 1010.3 |
| 20260830181501 | 67 | 161 | 2.0 | 6.0 | 0.00 | 0.11 | 0.00 | 81 | 1010.3 |
| 20260830180459 | 68 | 136 | 1.0 | 4.0 | 0.00 | 0.15 | 0.00 | 80 | 1010.4 |
| 20260830175458 | 68 | 172 | 3.0 | 7.0 | 0.00 | 0.15 | 0.00 | 80 | 1010.5 |
| 20260830174508 | 68 | 153 | 2.0 | 5.0 | 0.00 | 0.15 | 0.00 | 80 | 1010.5 |
| 20260830173507 | 69 | 136 | 2.0 | 7.0 | 0.00 | 0.15 | 0.00 | 80 | 1010.7 |
| 20260830172501 | 68 | 142 | 2.0 | 5.0 | 0.00 | 0.15 | 0.00 | 82 | 1010.7 |
| 20260830171455 | 68 | 210 | 2.0 | 7.0 | 0.00 | 0.15 | 0.00 | 83 | 1010.8 |
| 20260830170451 | 67 | 146 | 3.0 | 8.0 | 0.00 | 0.15 | 0.00 | 83 | 1010.9 |
| 20260830170418 | 67 | 180 | 4.0 | 10.0 | 0.00 | 0.15 | 0.00 | 83 | 1010.8 |
| 20260830164453 | 67 | 165 | 4.0 | 10.0 | 0.00 | 0.15 | 0.00 | 83 | 1010.9 |
| 20260830163451 | 67 | 153 | 2.0 | 6.0 | 0.00 | 0.15 | 0.00 | 83 | 1010.6 |
| 20260830162449 | 67 | 155 | 5.0 | 11.0 | 0.00 | 0.15 | 0.00 | 83 | 1010.8 |
| 20260830161450 | 68 | 154 | 5.0 | 17.0 | 0.00 | 0.15 | 0.00 | 82 | 1010.9 |
| 20260830160452 | 71 | 148 | 5.0 | 20.0 | 0.00 | 0.15 | 0.00 | 74 | 1011.1 |
| 20260830155452 | 72 | 246 | 4.0 | 12.0 | 0.00 | 0.15 | 0.00 | 70 | 1010.9 |
| 20260830154450 | 72 | 191 | 4.0 | 10.0 | 0.00 | 0.16 | 0.00 | 70 | 1010.8 |
| 20260830153454 | 72 | 175 | 3.0 | 8.0 | 0.00 | 0.16 | 0.00 | 70 | 1011.0 |
| 20260830152936 | 73 | 157 | 4.0 | 10.0 | 0.00 | 0.17 | 0.00 | 70 | 1011.3 |
| 20260830152515 | 72 | 220 | 5.0 | 10.0 | 0.00 | 0.17 | 0.00 | 70 | 1011.1 |
| 20260830150819 | 73 | 260 | 4.0 | 11.0 | 0.00 | 0.17 | 0.00 | 70 | 1011.6 |
| 20260830150732 | 72 | 170 | 4.0 | 14.0 | 0.00 | 0.19 | 0.00 | 71 | 1011.6 |
| 20260830150513 | 72 | 178 | 4.0 | 13.0 | 0.00 | 0.17 | 0.00 | 70 | 1011.3 |
| 20260830143457 | 71 | 213 | 4.0 | 11.0 | 0.00 | 0.24 | 0.00 | 70 | 1011.7 |
| 20260830142452 | 72 | 221 | 4.0 | 12.0 | 0.00 | 0.27 | 0.00 | 69 | 1011.9 |
| 20260830141447 | 72 | 190 | 5.0 | 13.0 | 0.00 | 0.28 | 0.00 | 69 | 1011.8 |
| 20260830140548 | 72 | 211 | 5.0 | 13.0 | 0.00 | 0.28 | 0.00 | 66 | 1011.9 |
| 20260830140455 | 72 | 202 | 4.0 | 11.0 | 0.00 | 0.28 | 0.00 | 69 | 1011.9 |
| 20260830135554 | 72 | 245 | 6.0 | 14.0 | 0.00 | 0.28 | 0.00 | 67 | 1012.0 |
| 20260830134040 | 72 | 221 | 4.0 | 9.0 | 0.00 | 0.31 | 0.00 | 66 | 1012.0 |
| 20260830133525 | 73 | 193 | 4.0 | 13.0 | 0.00 | 0.31 | 0.00 | 65 | 1012.0 |
| 20260830132002 | 73 | 212 | 5.0 | 10.0 | 0.00 | 0.31 | 0.00 | 64 | 1012.0 |
| 20260830130455 | 73 | 196 | 6.0 | 15.0 | 0.00 | 0.31 | 0.00 | 63 | 1012.0 |
| 20260830125447 | 73 | 207 | 6.0 | 14.0 | 0.00 | 0.31 | 0.00 | 61 | 1012.1 |
| 20260830124449 | 73 | 188 | 6.0 | 16.0 | 0.00 | 0.31 | 0.00 | 63 | 1012.1 |
| 20260830123443 | 73 | 155 | 5.0 | 12.0 | 0.00 | 0.31 | 0.00 | 67 | 1012.1 |
| 20260830122441 | 73 | 248 | 4.0 | 17.0 | 0.00 | 0.31 | 0.00 | 69 | 1012.1 |
| 20260830121443 | 72 | 236 | 5.0 | 13.0 | 0.00 | 0.31 | 0.00 | 69 | 1012.0 |
| 20260830120440 | 72 | 219 | 5.0 | 12.0 | 0.00 | 0.31 | 0.00 | 69 | 1012.1 |
| 20260830115630 | 70 | 224 | 5.0 | 9.0 | 0.00 | 0.31 | 0.00 | 75 | 1012.1 |
| 20260830115454 | 71 | 221 | 4.0 | 10.0 | 0.00 | 0.31 | 0.00 | 73 | 1012.2 |
| 20260830113448 | 71 | 177 | 4.0 | 11.0 | 0.00 | 0.31 | 0.00 | 75 | 1012.2 |
| 20260830112441 | 70 | 258 | 4.0 | 13.0 | 0.00 | 0.31 | 0.00 | 75 | 1012.2 |
| 20260830111551 | 69 | 232 | 4.0 | 12.0 | 0.00 | 0.31 | 0.00 | 80 | 1012.2 |
| 20260830111445 | 69 | 304 | 3.0 | 9.0 | 0.00 | 0.31 | 0.00 | 79 | 1012.2 |
| 20260830105437 | 69 | 261 | 5.0 | 11.0 | 0.00 | 0.31 | 0.00 | 79 | 1012.3 |
| 20260830104442 | 69 | 250 | 5.0 | 13.0 | 0.00 | 0.31 | 0.00 | 80 | 1012.3 |
| 20260830103437 | 69 | 167 | 5.0 | 12.0 | 0.00 | 0.31 | 0.00 | 82 | 1012.2 |
| 20260830102434 | 68 | 246 | 4.0 | 11.0 | 0.00 | 0.31 | 0.00 | 85 | 1012.1 |
| 20260830101438 | 67 | 212 | 4.0 | 10.0 | 0.00 | 0.31 | 0.00 | 88 | 1012.1 |
| 20260830100439 | 66 | 216 | 3.0 | 8.0 | 0.00 | 0.31 | 0.00 | 89 | 1012.0 |
| 20260830095436 | 66 | 261 | 4.0 | 12.0 | 0.00 | 0.31 | 0.00 | 87 | 1012.1 |
| 20260830094440 | 67 | 258 | 7.0 | 14.0 | 0.00 | 0.31 | 0.00 | 83 | 1012.1 |
| 20260830093437 | 67 | 271 | 6.0 | 14.0 | 0.00 | 0.31 | 0.00 | 82 | 1012.1 |
| 20260830092435 | 67 | 217 | 6.0 | 16.0 | 0.00 | 0.31 | 0.00 | 83 | 1012.1 |
| 20260830091431 | 68 | 228 | 7.0 | 16.0 | 0.00 | 0.31 | 0.00 | 81 | 1012.0 |
| 20260830090450 | 68 | 238 | 6.0 | 16.0 | 0.00 | 0.31 | 0.00 | 82 | 1011.9 |
| 20260830090433 | 68 | 221 | 6.0 | 17.0 | 0.00 | 0.31 | 0.00 | 81 | 1011.9 |
| 20260830084436 | 67 | 255 | 7.0 | 16.0 | 0.00 | 0.31 | 0.00 | 82 | 1011.8 |
| 20260830083652 | 67 | 173 | 7.0 | 14.0 | 0.00 | 0.31 | 0.00 | 84 | 1011.3 |
| 20260830083436 | 68 | 248 | 6.0 | 13.0 | 0.00 | 0.31 | 0.00 | 82 | 1011.7 |
| 20260830082529 | 67 | 237 | 7.0 | 15.0 | 0.00 | 0.31 | 0.00 | 83 | 1011.6 |
| 20260830080436 | 67 | 253 | 6.0 | 16.0 | 0.00 | 0.31 | 0.00 | 85 | 1011.2 |
| 20260830075431 | 66 | 226 | 7.0 | 15.0 | 0.00 | 0.31 | 0.00 | 86 | 1011.2 |
| 20260830074434 | 66 | 313 | 7.0 | 17.0 | 0.00 | 0.31 | 0.00 | 86 | 1011.1 |
| 20260830073432 | 65 | 220 | 6.0 | 16.0 | 0.00 | 0.31 | 0.00 | 87 | 1011.0 |
| 20260830072429 | 65 | 219 | 6.0 | 15.0 | 0.00 | 0.31 | 0.00 | 88 | 1010.8 |
| 20260830071430 | 65 | 252 | 5.0 | 14.0 | 0.00 | 0.31 | 0.00 | 89 | 1010.7 |
| 20260830070432 | 64 | 187 | 5.0 | 14.0 | 0.00 | 0.31 | 0.00 | 90 | 1010.6 |
| 20260830065430 | 64 | 238 | 5.0 | 13.0 | 0.00 | 0.31 | 0.00 | 90 | 1010.4 |
| 20260830064431 | 64 | 165 | 4.0 | 11.0 | 0.00 | 0.31 | 0.00 | 90 | 1010.3 |
| 20260830063437 | 64 | 288 | 4.0 | 11.0 | 0.00 | 0.31 | 0.00 | 90 | 1010.2 |
| 20260830062431 | 64 | 245 | 6.0 | 14.0 | 0.00 | 0.31 | 0.00 | 90 | 1010.2 |
| 20260830061430 | 64 | 241 | 6.0 | 13.0 | 0.00 | 0.31 | 0.00 | 90 | 1009.9 |
| 20260830060427 | 64 | 229 | 5.0 | 15.0 | 0.00 | 0.31 | 0.00 | 90 | 1009.9 |
| 20260830055425 | 64 | 250 | 6.0 | 14.0 | 0.00 | 0.31 | 0.00 | 91 | 1009.7 |
| 20260830054428 | 63 | 236 | 5.0 | 14.0 | 0.00 | 0.31 | 0.00 | 91 | 1009.7 |
| 20260830053421 | 63 | 227 | 5.0 | 13.0 | 0.00 | 0.31 | 0.00 | 90 | 1009.7 |
| 20260830052422 | 64 | 212 | 5.0 | 15.0 | 0.00 | 0.31 | 0.00 | 90 | 1009.6 |
| 20260830051424 | 64 | 240 | 7.0 | 16.0 | 0.00 | 0.31 | 0.00 | 90 | 1009.4 |
| 20260830050945 | 64 | 272 | 7.0 | 18.0 | 0.00 | 0.31 | 0.00 | 89 | 1009.3 |
| 20260830045422 | 64 | 212 | 6.0 | 15.0 | 0.00 | 0.31 | 0.00 | 89 | 1009.3 |
| 20260830044419 | 64 | 187 | 6.0 | 14.0 | 0.00 | 0.31 | 0.00 | 89 | 1009.1 |
| 20260830043417 | 64 | 229 | 6.0 | 17.0 | 0.00 | 0.31 | 0.00 | 89 | 1008.9 |
| 20260830042417 | 64 | 190 | 6.0 | 17.0 | 0.00 | 0.31 | 0.00 | 89 | 1008.7 |
| 20260830041411 | 64 | 186 | 6.0 | 13.0 | 0.00 | 0.31 | 0.00 | 89 | 1008.6 |
| 20260830040412 | 64 | 306 | 5.0 | 17.0 | 0.00 | 0.31 | 0.00 | 89 | 1008.5 |
| 20260830035526 | 64 | 178 | 6.0 | 15.0 | 0.00 | 0.31 | 0.00 | 89 | 1008.3 |
| 20260830035419 | 64 | 213 | 6.0 | 18.0 | 0.00 | 0.31 | 0.00 | 89 | 1008.4 |
| 20260830033411 | 64 | 189 | 5.0 | 15.0 | 0.00 | 0.31 | 0.00 | 90 | 1008.5 |
| 20260830032411 | 64 | 227 | 5.0 | 13.0 | 0.00 | 0.31 | 0.00 | 90 | 1008.4 |
| 20260830032359 | 64 | 243 | 6.0 | 13.0 | 0.00 | 0.31 | 0.00 | 90 | 1008.5 |
| 20260830030409 | 64 | 222 | 6.0 | 14.0 | 0.00 | 0.31 | 0.00 | 90 | 1008.3 |
| 20260830025420 | 64 | 240 | 7.0 | 14.0 | 0.00 | 0.31 | 0.00 | 90 | 1008.2 |
| 20260830024450 | 64 | 242 | 6.0 | 16.0 | 0.00 | 0.31 | 0.00 | 89 | 1008.3 |
| 20260830024419 | 64 | 192 | 6.0 | 14.0 | 0.00 | 0.31 | 0.00 | 89 | 1008.2 |
| 20260830022942 | 64 | 191 | 5.0 | 15.0 | 0.00 | 0.31 | 0.00 | 89 | 1008.0 |
| 20260830022514 | 64 | 186 | 7.0 | 19.0 | 0.00 | 0.31 | 0.00 | 89 | 1008.1 |
| 20260830020415 | 64 | 244 | 5.0 | 14.0 | 0.00 | 0.31 | 0.00 | 89 | 1008.0 |
| 20260830015413 | 64 | 240 | 6.0 | 14.0 | 0.00 | 0.31 | 0.00 | 89 | 1008.0 |
| 20260830014412 | 64 | 254 | 6.0 | 14.0 | 0.00 | 0.31 | 0.00 | 88 | 1008.1 |
| 20260830013413 | 64 | 232 | 5.0 | 13.0 | 0.00 | 0.31 | 0.00 | 87 | 1008.0 |
| 20260830012409 | 65 | 242 | 7.0 | 18.0 | 0.00 | 0.31 | 0.00 | 87 | 1007.8 |
| 20260830011408 | 65 | 160 | 7.0 | 21.0 | 0.00 | 0.31 | 0.00 | 86 | 1008.0 |
| 20260830010622 | 65 | 266 | 8.0 | 16.0 | 0.00 | 0.31 | 0.00 | 86 | 1007.9 |
| 20260830010422 | 65 | 239 | 7.0 | 16.0 | 0.00 | 0.31 | 0.00 | 86 | 1007.8 |
| 20260830004404 | 65 | 190 | 6.0 | 19.0 | 0.00 | 0.31 | 0.00 | 87 | 1007.7 |